Chillicothe, MO

12:03 AM CDT on April 28, 2017 (GMT -0500)
Chillicothe

Weather History for KCDJ - October, 2013

Change the Weather History Date:

Saturday, October 12, 2013

  Actual Average (KIRK) Record (KIRK)
Temperature  
Mean Temperature 60 °F -  
Max Temperature 73 °F 67 °F 87 °F (1956)
Min Temperature 44 °F 44 °F 28 °F (2006)
Degree Days  
Heating Degree Days 6    
Growing Degree Days 10 (Base 50)    
Moisture  
Dew Point 43 °F    
Average Humidity 59    
Maximum Humidity 87    
Minimum Humidity 24    
Precipitation  
Precipitation 0.04 in - - ()
Sea Level Pressure  
Sea Level Pressure 30.09 in    
Wind  
Wind Speed 3 mph (NW)    
Max Wind Speed 10 mph    
Max Gust Speed 20 mph    
Averages and records for this station are not official NWS values.
T = Trace of Precipitation, MM = Missing Value Source: NWS Daily Summary

Daily Weather History Graph

Daily Weather History Graph

Search for Another Location

Airport or City:

Trip Planner

Search our weather history database for the weather conditions in past years. The results will help you decide how hot, cold, wet, or windy it might be!

Date:

Astronomy

Oct. 12, 2013 Rise Set
Actual Time 7:21 AM CDT 6:38 PM CDT
Civil Twilight 6:54 AM CDT 7:06 PM CDT
Nautical Twilight 6:23 AM CDT 7:37 PM CDT
Astronomical Twilight 5:52 AM CDT 8:08 PM CDT
Moon 2:48 PM CDT (10/12) 12:26 AM CDT (10/12)
Length of Visible Light 12h 11m
Length of Day
11h 17m
First Quarter, 59% of the Moon is Illuminated
Oct 12
First Quarter
Oct 18
Full
Oct 26
Last Quarter
Nov 3
New
Nov 9
First Quarter

Hourly Weather History & Observations

Time (CDT) Temp. Dew Point Humidity Pressure Visibility Wind Dir Wind Speed Gust Speed Precip Events Conditions
12:52 AM 66.9 °F 62.1 °F 84% 29.85 in - Calm Calm - N/A   Unknown
1:52 AM 66.9 °F 63.0 °F 87% 29.88 in - SSW 6.9 mph - 0.04 in   Unknown
2:52 AM 66.0 °F 62.1 °F 87% 29.87 in - Variable 4.6 mph - N/A   Unknown
3:52 AM 59.0 °F 48.9 °F 69% 29.91 in - Variable 6.9 mph 18.4 mph N/A   Unknown
4:52 AM 57.9 °F 46.9 °F 67% 29.96 in - Variable 3.5 mph - N/A   Unknown
5:52 AM 55.0 °F 45.0 °F 69% 29.99 in - North 4.6 mph - N/A   Unknown
6:52 AM 51.1 °F 45.0 °F 80% 30.03 in - Calm Calm - N/A   Unknown
7:52 AM 50.0 °F 45.0 °F 83% 30.06 in - Calm Calm - N/A   Unknown
8:52 AM 55.9 °F 45.0 °F 67% 30.09 in - Variable 3.5 mph - N/A   Unknown
9:52 AM 60.1 °F 43.0 °F 53% 30.10 in - NNW 8.1 mph - N/A   Unknown
10:52 AM 63.0 °F 44.1 °F 50% 30.11 in - NW 6.9 mph - N/A   Unknown
11:52 AM 64.9 °F 39.9 °F 40% 30.13 in - North 9.2 mph - N/A   Unknown
12:52 PM 68.0 °F 39.0 °F 35% 30.12 in - North - - N/A   Unknown
1:52 PM 69.1 °F 37.0 °F 31% 30.13 in - NW 10.4 mph 19.6 mph N/A   Unknown
2:52 PM 71.1 °F 36.0 °F 28% 30.12 in - North - - N/A   Unknown
3:52 PM 73.0 °F 34.0 °F 24% 30.12 in - Variable 4.6 mph - N/A   Unknown
4:52 PM 71.1 °F 32.0 °F 24% 30.13 in - Variable 3.5 mph - N/A   Unknown
5:52 PM 69.1 °F 32.0 °F 25% 30.15 in - NW 3.5 mph - N/A   Unknown
6:52 PM 59.0 °F 37.0 °F 44% 30.18 in - Calm Calm - N/A   Unknown
7:52 PM 55.0 °F 39.9 °F 57% 30.19 in - Calm Calm - N/A   Unknown
8:52 PM 50.0 °F 39.9 °F 68% 30.22 in - Calm Calm - N/A   Unknown
9:52 PM 46.9 °F 39.9 °F 77% 30.24 in - Calm Calm - N/A   Unknown
10:52 PM 46.9 °F 39.9 °F 77% 30.27 in - Calm Calm - N/A   Unknown
11:52 PM 44.1 °F 39.0 °F 82% 30.28 in - Calm Calm - N/A   Unknown